ZKXXK NZPM-NZCH

Flight info

Callsign ZKXXK
Flight time 0h 49m
Altitude 32000
Route ABTOL Y226 GURBO Y804 ATBUB H159 MESIX
Aircraft C25A/L-SDFGRWY/S

Departure

Time 2026-05-01 08:12
Airport Palmerston North Airport (NZPM)

Arrival

Time 2026-05-01 09:02
Airport Christchurch International Airport (NZCH)
Time Latitude Longitude Altitude Speed Heading
2026-05-01 08:01 -40.32290 175.62058 155 ft 0 kts 123°
2026-05-01 08:08 -40.32290 175.62061 155 ft 3 kts 107°
2026-05-01 08:08 -40.32233 175.61957 155 ft 10 kts 339°
2026-05-01 08:09 -40.32095 175.61956 155 ft 3 kts
2026-05-01 08:09 -40.32067 175.61956 155 ft 0 kts
2026-05-01 08:10 -40.31984 175.61924 155 ft 13 kts 275°
2026-05-01 08:10 -40.31984 175.61465 155 ft 31 kts 270°
2026-05-01 08:11 -40.31986 175.60831 155 ft 39 kts 270°
2026-05-01 08:11 -40.31994 175.60365 155 ft 8 kts 67°
2026-05-01 08:12 -40.31986 175.61133 156 ft 118 kts 89°
2026-05-01 08:12 -40.31990 175.62464 597 ft 157 kts 90°
2026-05-01 08:12 -40.32080 175.65643 2493 ft 210 kts 92°
2026-05-01 08:13 -40.32142 175.67669 3628 ft 234 kts 91°
2026-05-01 08:13 -40.32200 175.69854 4896 ft 243 kts 91°
2026-05-01 08:13 -40.32299 175.74187 7352 ft 233 kts 91°
2026-05-01 08:14 -40.32334 175.76270 8465 ft 232 kts 91°
2026-05-01 08:14 -40.32377 175.78396 9453 ft 234 kts 91°
2026-05-01 08:14 -40.32419 175.80522 10439 ft 233 kts 92°
2026-05-01 08:14 -40.32459 175.82646 11397 ft 233 kts 92°
2026-05-01 08:15 -40.32503 175.84764 12298 ft 232 kts 95°
2026-05-01 08:15 -40.34393 175.87942 13849 ft 247 kts 161°
2026-05-01 08:15 -40.36137 175.87887 14870 ft 259 kts 195°
2026-05-01 08:16 -40.37668 175.86604 15936 ft 268 kts 220°
2026-05-01 08:16 -40.38926 175.84773 16958 ft 272 kts 228°
2026-05-01 08:16 -40.40101 175.82814 17923 ft 274 kts 229°
2026-05-01 08:16 -40.41315 175.80881 18844 ft 275 kts 226°
2026-05-01 08:17 -40.42611 175.79018 19698 ft 278 kts 224°
2026-05-01 08:17 -40.43992 175.77227 20517 ft 280 kts 221°
2026-05-01 08:17 -40.45439 175.75510 21298 ft 282 kts 218°
2026-05-01 08:17 -40.46941 175.73847 22039 ft 284 kts 217°
2026-05-01 08:18 -40.48490 175.72224 22744 ft 286 kts 215°
2026-05-01 08:18 -40.51687 175.69056 24071 ft 290 kts 214°
2026-05-01 08:19 -40.54979 175.65941 25289 ft 293 kts 212°
2026-05-01 08:19 -40.56625 175.64413 25854 ft 294 kts 213°
2026-05-01 08:19 -40.58309 175.62865 26398 ft 296 kts 212°
2026-05-01 08:19 -40.60006 175.61314 26942 ft 297 kts 212°
2026-05-01 08:20 -40.61710 175.59763 27456 ft 299 kts 212°
2026-05-01 08:20 -40.63434 175.58199 27967 ft 301 kts 212°
2026-05-01 08:20 -40.65165 175.56632 28469 ft 303 kts 212°
2026-05-01 08:20 -40.66903 175.55060 28951 ft 305 kts 212°
2026-05-01 08:21 -40.68663 175.53471 29435 ft 306 kts 212°
2026-05-01 08:21 -40.70401 175.51902 29910 ft 308 kts 212°
2026-05-01 08:21 -40.72199 175.50279 30374 ft 310 kts 212°
2026-05-01 08:21 -40.73957 175.48693 30810 ft 312 kts 212°
2026-05-01 08:22 -40.75756 175.47069 31238 ft 314 kts 212°
2026-05-01 08:22 -40.77571 175.45430 31656 ft 317 kts 212°
2026-05-01 08:22 -40.79398 175.43780 32076 ft 319 kts 212°
2026-05-01 08:22 -40.81240 175.42116 32441 ft 324 kts 212°
2026-05-01 08:23 -40.83133 175.40406 32566 ft 336 kts 212°
2026-05-01 08:23 -40.85103 175.38627 32633 ft 349 kts 212°
2026-05-01 08:23 -40.87145 175.36782 32647 ft 362 kts 213°
2026-05-01 08:24 -40.91406 175.32926 32646 ft 379 kts 213°
2026-05-01 08:24 -40.95818 175.28922 32644 ft 389 kts 213°
2026-05-01 08:25 -41.00320 175.24827 32643 ft 395 kts 213°
2026-05-01 08:25 -41.04889 175.20663 32643 ft 399 kts 213°
2026-05-01 08:26 -41.09468 175.16483 32643 ft 400 kts 213°
2026-05-01 08:26 -41.13282 175.12996 32642 ft 401 kts 213°
2026-05-01 08:27 -41.17875 175.08790 32642 ft 401 kts 213°
2026-05-01 08:27 -41.22467 175.04578 32642 ft 401 kts 213°
2026-05-01 08:28 -41.27059 175.00359 32642 ft 401 kts 213°
2026-05-01 08:28 -41.31627 174.96157 32642 ft 401 kts 213°
2026-05-01 08:29 -41.36226 174.91918 32643 ft 401 kts 213°
2026-05-01 08:29 -41.40819 174.87676 32642 ft 401 kts 213°
2026-05-01 08:30 -41.45405 174.83432 32642 ft 401 kts 214°
2026-05-01 08:30 -41.49992 174.79180 32642 ft 401 kts 214°
2026-05-01 08:31 -41.54577 174.74924 32642 ft 401 kts 214°
2026-05-01 08:31 -41.59120 174.70699 32642 ft 401 kts 214°
2026-05-01 08:32 -41.63703 174.66429 32642 ft 401 kts 214°
2026-05-01 08:32 -41.68285 174.62153 32641 ft 401 kts 214°
2026-05-01 08:33 -41.72856 174.57879 32641 ft 401 kts 214°
2026-05-01 08:33 -41.77431 174.53595 32641 ft 401 kts 214°
2026-05-01 08:34 -41.82009 174.49315 32640 ft 401 kts 214°
2026-05-01 08:34 -41.86585 174.45024 32640 ft 401 kts 214°
2026-05-01 08:35 -41.91154 174.40718 32639 ft 401 kts 214°
2026-05-01 08:35 -41.95715 174.36410 32638 ft 401 kts 214°
2026-05-01 08:36 -42.00253 174.32118 32637 ft 401 kts 214°
2026-05-01 08:36 -42.04813 174.27796 32637 ft 401 kts 214°
2026-05-01 08:37 -42.09368 174.23474 32636 ft 401 kts 214°
2026-05-01 08:37 -42.13926 174.19142 32635 ft 401 kts 214°
2026-05-01 08:38 -42.18481 174.14806 32630 ft 401 kts 214°
2026-05-01 08:38 -42.23040 174.10459 32625 ft 401 kts 214°
2026-05-01 08:39 -42.27593 174.06110 32623 ft 401 kts 214°
2026-05-01 08:39 -42.32145 174.01754 32620 ft 401 kts 214°
2026-05-01 08:40 -42.38972 173.95206 32617 ft 401 kts 214°
2026-05-01 08:40 -42.43523 173.90832 32614 ft 401 kts 214°
2026-05-01 08:41 -42.48070 173.86453 32612 ft 401 kts 214°
2026-05-01 08:41 -42.52581 173.82100 32610 ft 401 kts 214°
2026-05-01 08:42 -42.57150 173.77684 32607 ft 400 kts 214°
2026-05-01 08:42 -42.61660 173.73317 32605 ft 400 kts 215°
2026-05-01 08:43 -42.66247 173.68861 32195 ft 406 kts 215°
2026-05-01 08:43 -42.68552 173.66610 31789 ft 411 kts 215°
2026-05-01 08:43 -42.70884 173.64327 31349 ft 414 kts 215°
2026-05-01 08:44 -42.73171 173.62092 30754 ft 397 kts 214°
2026-05-01 08:44 -42.75409 173.59932 30092 ft 392 kts 214°
2026-05-01 08:44 -42.77632 173.57801 29419 ft 390 kts 214°
2026-05-01 08:44 -42.79831 173.55696 28747 ft 388 kts 214°
2026-05-01 08:45 -42.82022 173.53592 28045 ft 387 kts 214°
2026-05-01 08:45 -42.84224 173.51472 27324 ft 388 kts 214°
2026-05-01 08:45 -42.86431 173.49338 26598 ft 388 kts 215°
2026-05-01 08:45 -42.88616 173.47215 25873 ft 379 kts 215°
2026-05-01 08:46 -42.90730 173.45140 25276 ft 369 kts 216°
2026-05-01 08:46 -42.92781 173.43114 24776 ft 359 kts 216°
2026-05-01 08:46 -42.94789 173.41126 24295 ft 353 kts 216°
2026-05-01 08:46 -42.96761 173.39170 23818 ft 349 kts 216°
2026-05-01 08:47 -42.98717 173.37230 23342 ft 346 kts 216°
2026-05-01 08:47 -43.00655 173.35308 22855 ft 344 kts 216°
2026-05-01 08:47 -43.02591 173.33388 22320 ft 344 kts 216°
2026-05-01 08:47 -43.04526 173.31467 21772 ft 344 kts 216°
2026-05-01 08:48 -43.06463 173.29545 21223 ft 344 kts 216°
2026-05-01 08:48 -43.08395 173.27622 20674 ft 345 kts 217°
2026-05-01 08:48 -43.10320 173.25662 20123 ft 345 kts 219°
2026-05-01 08:48 -43.12111 173.23474 19574 ft 344 kts 224°
2026-05-01 08:49 -43.13792 173.21133 19000 ft 345 kts 227°
2026-05-01 08:49 -43.15391 173.18748 18818 ft 335 kts 229°
2026-05-01 08:49 -43.16904 173.16421 18691 ft 327 kts 229°
2026-05-01 08:49 -43.18411 173.14071 18548 ft 321 kts 229°
2026-05-01 08:50 -43.19896 173.11747 18032 ft 327 kts 229°
2026-05-01 08:50 -43.21411 173.09381 17418 ft 335 kts 229°
2026-05-01 08:50 -43.22969 173.06956 16792 ft 340 kts 229°
2026-05-01 08:50 -43.24547 173.04512 16167 ft 344 kts 229°
2026-05-01 08:51 -43.26119 173.02084 15550 ft 346 kts 229°
2026-05-01 08:51 -43.27723 172.99613 14926 ft 348 kts 229°
2026-05-01 08:51 -43.29260 172.97245 14304 ft 309 kts 230°
2026-05-01 08:51 -43.30621 172.95138 13684 ft 284 kts 230°
2026-05-01 08:52 -43.31899 172.93152 13054 ft 271 kts 230°
2026-05-01 08:52 -43.33125 172.91241 12428 ft 266 kts 230°
2026-05-01 08:52 -43.34350 172.89337 11864 ft 264 kts 230°
2026-05-01 08:52 -43.35564 172.87456 11313 ft 263 kts 230°
2026-05-01 08:53 -43.36763 172.85598 10768 ft 262 kts 230°
2026-05-01 08:53 -43.38067 172.83573 10449 ft 296 kts 230°
2026-05-01 08:53 -43.39451 172.81418 10223 ft 304 kts 230°
2026-05-01 08:53 -43.40866 172.79223 10000 ft 309 kts 230°
2026-05-01 08:54 -43.42304 172.76994 9775 ft 312 kts 230°
2026-05-01 08:54 -43.43752 172.74755 9518 ft 315 kts 230°
2026-05-01 08:54 -43.45214 172.72509 9219 ft 313 kts 228°
2026-05-01 08:54 -43.46718 172.70378 8919 ft 308 kts 226°
2026-05-01 08:55 -43.48253 172.68329 8616 ft 304 kts 225°
2026-05-01 08:55 -43.49747 172.66386 8318 ft 287 kts 224°
2026-05-01 08:55 -43.51170 172.64560 7931 ft 274 kts 224°
2026-05-01 08:55 -43.52546 172.62792 7481 ft 268 kts 224°
2026-05-01 08:56 -43.53897 172.61047 7029 ft 265 kts 224°
2026-05-01 08:56 -43.55233 172.59313 6579 ft 263 kts 224°
2026-05-01 08:56 -43.56558 172.57584 6129 ft 262 kts 224°
2026-05-01 08:56 -43.57878 172.55856 5678 ft 261 kts 224°
2026-05-01 08:57 -43.59176 172.54150 5227 ft 248 kts 225°
2026-05-01 08:57 -43.60388 172.52544 4769 ft 234 kts 225°
2026-05-01 08:57 -43.61521 172.51000 4316 ft 226 kts 230°
2026-05-01 08:57 -43.62170 172.49119 3853 ft 215 kts 257°
2026-05-01 08:58 -43.62326 172.47117 3175 ft 207 kts 270°
2026-05-01 08:58 -43.62097 172.45183 2515 ft 203 kts 294°
2026-05-01 08:58 -43.61150 172.43864 2241 ft 189 kts 329°
2026-05-01 08:58 -43.59963 172.43170 2147 ft 186 kts 342°
2026-05-01 08:59 -43.58675 172.42888 2044 ft 187 kts
2026-05-01 08:59 -43.57522 172.43496 2115 ft 176 kts 30°
2026-05-01 08:59 -43.56488 172.44471 1942 ft 180 kts 37°
2026-05-01 08:59 -43.55551 172.45500 1711 ft 160 kts 39°
2026-05-01 09:00 -43.54772 172.46399 1521 ft 136 kts 40°
2026-05-01 09:00 -43.54079 172.47206 1359 ft 128 kts 40°
2026-05-01 09:00 -43.53408 172.47987 1291 ft 123 kts 40°
2026-05-01 09:00 -43.52784 172.48712 1235 ft 116 kts 40°
2026-05-01 09:01 -43.52171 172.49423 1043 ft 119 kts 40°
2026-05-01 09:01 -43.51542 172.50152 811 ft 116 kts 40°
2026-05-01 09:01 -43.50943 172.50845 549 ft 108 kts 41°
2026-05-01 09:01 -43.50373 172.51508 331 ft 106 kts 40°
2026-05-01 09:02 -43.49807 172.52158 183 ft 105 kts 40°
2026-05-01 09:02 -43.49253 172.52799 128 ft 95 kts 41°
2026-05-01 09:02 -43.48945 172.53158 127 ft 20 kts 29°
2026-05-01 09:02 -43.48934 172.53264 127 ft 14 kts 140°
2026-05-01 09:03 -43.48998 172.53372 127 ft 14 kts 131°
2026-05-01 09:03 -43.49041 172.53387 127 ft 10 kts 203°
2026-05-01 09:03 -43.49123 172.53297 127 ft 20 kts 220°
2026-05-01 09:03 -43.49266 172.53130 127 ft 34 kts 220°
2026-05-01 09:04 -43.49466 172.52899 127 ft 38 kts 221°
2026-05-01 09:04 -43.49659 172.52675 127 ft 34 kts 221°
2026-05-01 09:04 -43.49804 172.52531 127 ft 15 kts 150°
2026-05-01 09:04 -43.49865 172.52620 127 ft 11 kts 129°
2026-05-01 09:05 -43.49879 172.52675 127 ft 4 kts 37°
2026-05-01 09:05 -43.49849 172.52714 127 ft 7 kts 86°
2026-05-01 09:05 -43.49844 172.52735 127 ft 0 kts 51°